Regional Weather Roundup
Issued by NWS

Home | Current Version | Previous Version | Text Only | Print | Product List | Glossary On
Versions: 1 2 3 4 5 6 7 8 9 10 11 12 13 14 15 16 17 18 19 20 21 22 23 24 25 26 27 28 29 30 31 32 33 34 35 36 37 38 39 40 41 42 43 44 45 46 47 48 49 50
000
ASUS46 KPQR 122110
RWROR

OREGON REGIONAL WEATHER ROUNDUP
NATIONAL WEATHER SERVICE PORTLAND OR
200 PM PDT SAT JUL 12 2014

NOTE: "FAIR" INDICATES FEW OR NO CLOUDS BELOW 12,000 FEET WITH
NO SIGNIFICANT WEATHER AND/OR OBSTRUCTIONS TO VISIBILITY.

ORZ001>013-122200-
NORTHWEST OREGON


CITY           SKY/WX    TMP DP  RH WIND       PRES   REMARKS
ASTORIA        CLOUDY    64  57  78 W8        30.13S
NEWPORT        CLOUDY    61  55  82 W5        30.16F
PORTLAND       MOSUNNY   86  59  39 W10       30.05F
VANCOUVER WA   SUNNY     85  58  39 W8        30.04F
SCAPPOOSE      SUNNY     85  62  46 E6        30.04F
HILLSBORO      SUNNY     87  59  38 CALM      30.04F
AURORA         SUNNY     85  60  42 CALM      30.05F
MCMINNVILLE    SUNNY     85  61  44 SE3       30.05F
SALEM          SUNNY     87  58  37 NW8       30.04F
CORVALLIS      SUNNY     82  61  47 N3        30.07F
EUGENE         MOSUNNY   87  60  40 NE10      30.06F
$$

ORZ021-028-122200-
SOUTHWEST OREGON


CITY           SKY/WX    TMP DP  RH WIND       PRES   REMARKS
NORTH BEND     PTSUNNY   64  55  72 NW9       30.15R
BROOKINGS      CLOUDY    58  54  86 VRB7      30.16R
ROSEBURG       SUNNY     89  60  37 N10       30.03F
SEXTON SUMMIT  SUNNY     85  53  33 VRB3      30.20S
MEDFORD        SUNNY     97  48  18 N7        30.01F HX  93
$$

ORZ009-041-122200-
COLUMBIA GORGE


CITY           SKY/WX    TMP DP  RH WIND       PRES   REMARKS
TROUTDALE      SUNNY     85  63  47 VRB6      30.03F
THE DALLES     SUNNY     99  48  17 NW9       29.96F HX  95
$$

ORZ029>031-042>050-061>064-122200-
EASTERN OREGON


CITY           SKY/WX    TMP DP  RH WIND       PRES   REMARKS
REDMOND        SUNNY     93  38  14 VRB3      30.12F
BEND           CLEAR     90  43  19 CALM      30.16F
KLAMATH FALLS  SUNNY     87  49  26 VRB6      30.18F
LAKEVIEW       MOSUNNY   88  46  23 NE5G22    30.24F
HERMISTON      SUNNY     99  48  17 N8        30.01F HX  95
PENDLETON      SUNNY     98  36  11 MISG      30.04F HX  93
MEACHAM        SUNNY     87  42  20 VRB5      30.21S
LA GRANDE      SUNNY     91  46  21 NE6       30.12S
BAKER CITY     SUNNY     91  43  18 VRB3      30.16S
BURNS          SUNNY     89  39  17 VRB6      30.20F
ROME             N/A     93  41  16 E9G17     30.16F
ONTARIO        SUNNY     99  44  15 CALM      30.05F HX  95
$$


USA.gov is the U.S. government's official web portal to all federal, state and local government web resources and services.